Regional Weather Roundup
Issued by NWS

Home | Current Version | Previous Version | Graphics & Text | Print | Product List | Glossary On
Versions: 1 2 3 4 5 6 7 8 9 10 11 12 13 14 15 16 17 18 19 20 21 22 23 24 25 26 27 28 29 30 31 32 33 34 35 36 37 38 39 40 41 42 43 44 45 46 47 48 49 50
098
ASUS43 KIND 210609
RWRIN

WEATHER ROUNDUP FOR INDIANA
NATIONAL WEATHER SERVICE INDIANAPOLIS IN
100 AM EST TUE FEB 21 2017

NOTE: "FAIR" INDICATES FEW OR NO CLOUDS BELOW 12,000 FEET WITH NO
SIGNIFICANT WEATHER AND/OR OBSTRUCTIONS TO VISIBILITY.

* - STATION DOES NOT REPORT WEATHER SUCH AS PRECIPITATION OR FOG.

+ - STATION NOT QUALITY CONTROLLED BY THE NATIONAL WEATHER SERVICE.
    USE DATA WITH CAUTION...ESPECIALLY DEWPOINT AND RELATIVE
    HUMIDITY OBSERVATIONS.

INZ001>003-010>013-019-020-210700-
NORTHWEST INDIANA

CITY           SKY/WX    TMP DP  RH WIND       PRES   REMARKS
GARY /AIRPORT/ PTCLDY    59  46  60 S10G17    29.94R
KNOX *+        MOCLDY    54  28  37 SE9       29.97S
LA PORTE +     MOCLDY    53  45  72 S8        29.97S
6HR MIN TEMP:  53; 6HR MAX TEMP:  56;

MICHIGAN CITY+ CLOUDY    55  45  67 SE7       29.96S
MONTICELLO +   CLOUDY    55  47  72 SE8       29.96S
6HR MIN TEMP:  55; 6HR MAX TEMP:  60;

RENSSELAER +   PTCLDY    54  46  76 SE6       29.96R
VALPARAISO     CLOUDY    57  47  69 SE8G17    29.96S
6HR MIN TEMP:  56; 6HR MAX TEMP:  61;


$$

LMZ046-743>745-210700-
SOUTHERN LAKE MICHIGAN

STATION/POSITION TIME  TEMP    WIND        PRES    WAVE
                       AIR SEA DIR/SP/G            HT
                 (UTC) (F)     (DEG/KT/KT) (MB)    (FT)
BURNS HARBOR     0540   58     170/ 14/ 24 1014.2S
MICHIGAN CITY    0540   57     130/ 14/ 17   N/A

$$

INZ004-005-014>016-021>024-210700-
NORTH CENTRAL INDIANA

CITY           SKY/WX    TMP DP  RH WIND       PRES   REMARKS
GOSHEN         CLOUDY    50  39  66 SE12      29.99F
6HR MIN TEMP:  49; 6HR MAX TEMP:  57;

LOGANSPORT +   CLOUDY    52  45  76 SE10      29.99S
PERU/GRISSOM   CLOUDY    51  47  87 SE6       29.97F
6HR MIN TEMP:  51; 6HR MAX TEMP:  58;

ROCHESTER +    CLOUDY    54  43  66 SE7       29.98F
SOUTH BEND     MOCLDY    54  42  64 SE10      29.99S
6HR MIN TEMP:  54; 6HR MAX TEMP:  58;

WARSAW +       CLOUDY    50  41  71 SE6       29.99S

$$

INZ006>009-017-018-025>027-210700-
NORTHEAST INDIANA

CITY           SKY/WX    TMP DP  RH WIND       PRES   REMARKS
ANGOLA *+      CLEAR     43  36  75 SE6       30.02S
AUBURN +       CLOUDY    43  34  70 E6        30.04S
FORT WAYNE     CLOUDY    45  39  79 E6        30.03S
6HR MIN TEMP:  45; 6HR MAX TEMP:  55;

HUNTINGTON +   MOCLDY    51  40  67 SE7       30.01S
6HR MIN TEMP:  51; 6HR MAX TEMP:  56;

KENDALLVILLE + CLOUDY    42  35  75 SE9       30.02F

$$

INZ028-029-035-036-043>045-051>053-210700-
WEST CENTRAL INDIANA

CITY           SKY/WX    TMP DP  RH WIND       PRES   REMARKS
GREENCASTLE +  MOCLDY    52  45  76 SE7       29.98F
LAFAYETTE      CLOUDY    56  48  74 SE8       29.96S
6HR MIN TEMP:  56; 6HR MAX TEMP:  61;

TERRE HAUTE    CLOUDY    56  46  69 SE6       29.97S
6HR MIN TEMP:  55; 6HR MAX TEMP:  62;


$$

INZ030>032-037>040-046>048-054>057-064-065-210700-
CENTRAL INDIANA

CITY           SKY/WX    TMP DP  RH WIND       PRES   REMARKS
FRANKFORT +    CLOUDY    54  49  81 S9        30.00F
6HR MIN TEMP:  52; 6HR MAX TEMP:  58;

GREENWOOD *+   CLOUDY    54  48  80 SE6       30.02S
INDIANAPOLIS   CLOUDY    55  47  74 SE12      30.00F
6HR MIN TEMP:  55; 6HR MAX TEMP:  60;

-EAGLE CREEK   CLOUDY    57  46  66 SE8       30.00S
6HR MIN TEMP:  57; 6HR MAX TEMP:  62;

KOKOMO +       MOCLDY    51  45  79 SE9       30.00F
6HR MIN TEMP:  51; 6HR MAX TEMP:  56;

MARION +       PTCLDY    51  42  71 SE8       30.01F
MT COMFORT *+  CLOUDY    52  45  76 SE8       30.02F
SHELBYVILLE    PTCLDY    56  44  64 SE10      30.01S
6HR MIN TEMP:  54; 6HR MAX TEMP:  60;

ZIONSVILLE +   CLOUDY    54  46  73 SE10      30.00F
6HR MIN TEMP:  52; 6HR MAX TEMP:  58;


$$

INZ033-034-041-042-049-050-058-059-210700-
EAST CENTRAL INDIANA

CITY           SKY/WX    TMP DP  RH WIND       PRES   REMARKS
MUNCIE         PTCLDY    57  39  51 S9        30.02S
6HR MIN TEMP:  54; 6HR MAX TEMP:  59;


$$

INZ060-061-067>069-081>083-085>088-210700-
SOUTHWEST INDIANA

CITY           SKY/WX    TMP DP  RH WIND       PRES   REMARKS
EVANSVILLE     CLOUDY    57  46  66 E3        29.97F
6HR MIN TEMP:  54; 6HR MAX TEMP:  65;

HUNTINGBURG *+ CLOUDY    57  45  64 SE5       29.99F
6HR MIN TEMP:  55; 6HR MAX TEMP:  64;

WASHINGTON +   CLOUDY    55  45  70 S8        29.97F
6HR MIN TEMP:  50; 6HR MAX TEMP:  59;


$$

INZ062-063-066-070>080-084-089>092-210700-
SOUTH CENTRAL AND SOUTHEAST INDIANA

CITY           SKY/WX    TMP DP  RH WIND       PRES   REMARKS
BEDFORD +      CLOUDY   N/A N/A N/A SE6       30.00F
BLOOMINGTON    MOCLDY    54  44  69 SE3       30.00S
6HR MIN TEMP:  47; 6HR MAX TEMP:  61;

MADISON *+     CLOUDY    55  43  62 E5        30.05R
NORTH VERNON + CLOUDY    57  45  62 SE7       30.05R
SEYMOUR +      MOCLDY    50  43  76 CALM      30.02R

$$





USA.gov is the U.S. government's official web portal to all federal, state and local government web resources and services.